Starlink 2069

operational
NORAD ID: 47359 Int'l Des: 2021-005 Owner: SPXS Country: US Constellation: starlink
LEOCIRCULAR

Starlink 2069について

説明を読み込み中...

リアルタイム位置

3D地球を読み込み中...

次回通過

高度履歴

Altitude vs Time

uPlot chart will show altitude changes over time

軌道要素

1 47359U 21005L 25305.66668981 .00186432 00000-0 18612-2 0 9995
2 47359 53.0158 186.3458 0005426 150.8974 213.1669 15.64514499 6000
Epoch: Nov 1, 2025 • Age: 22 hours

現在のステータス

高度 373.2 km
速度 7.69 km/s
衛星直下点 -8.82°S, 112.49°E
打ち上げ日 Jan 20, 2021
運用期間 4.7 years
タイプ internet

技術仕様

分類 Payload
質量 260.00 kg
乾燥質量 248.00 kg
総質量 260.00 kg
長さ 0.20 m
直径 2.80 m
スパン 9.00 m
形状 Box + pan
製造者 SPXS
バスタイプ Starlink
フェーズステータス In Orbit
所有者/国 SPXS/US

大規模コンステレーション

Loading constellations...